iso_date,epoch_date,Year,Hour,Min,DOY,POS_DOY,Lat,Lon,BP,Ts,Ta,has_bp,has_ts,has_ta,BuoyID,Buoy_Type,Buoy_Owner,Logistics,Hemisphere
2016-07-07T23:13:55Z,1467933235,2016,23,14,189.968,189.968,67.1182,-168.1526,1010.4,17.14,-999.0,yes,yes,no,300234063323700,BD2GI,AOML,UNKNOWN,North
2016-07-08T00:00:00Z,1467936000,2016,0,0,190.0,190.0,67.2836,-168.0762,1010.3,16.04,-999.0,yes,yes,no,300234063323700,BD2GI,AOML,UNKNOWN,North
2016-07-08T01:00:28Z,1467939629,2016,1,0,190.042,190.042,67.523,-167.965,1010.2,14.33,-999.0,yes,yes,no,300234063323700,BD2GI,AOML,UNKNOWN,North
2016-07-08T01:59:31Z,1467943171,2016,2,0,190.083,190.083,67.7654,-167.85181,1010.3,13.41,-999.0,yes,yes,no,300234063323700,BD2GI,AOML,UNKNOWN,North
2016-07-08T03:00:00Z,1467946800,2016,3,0,190.125,190.125,68.0088,-167.73759,1010.4,12.76,-999.0,yes,yes,no,300234063323700,BD2GI,AOML,UNKNOWN,North
2016-07-08T04:00:28Z,1467950429,2016,4,0,190.167,190.167,68.255,-167.61861,1010.2,12.28,-999.0,yes,yes,no,300234063323700,BD2GI,AOML,UNKNOWN,North
2016-07-08T04:59:31Z,1467953971,2016,5,0,190.208,190.208,68.504,-167.4922,1010.3,12.18,-999.0,yes,yes,no,300234063323700,BD2GI,AOML,UNKNOWN,North
2016-07-08T06:00:00Z,1467957600,2016,6,0,190.25,190.25,68.7086,-167.1234,1010.4,11.97,-999.0,yes,yes,no,300234063323700,BD2GI,AOML,UNKNOWN,North
2016-07-08T07:00:28Z,1467961229,2016,7,0,190.292,190.292,68.9146,-166.7482,1010.6,11.73,-999.0,yes,yes,no,300234063323700,BD2GI,AOML,UNKNOWN,North
2016-07-08T07:59:31Z,1467964771,2016,8,0,190.333,190.333,69.1148,-166.37981,1010.8,11.46,-999.0,yes,yes,no,300234063323700,BD2GI,AOML,UNKNOWN,North
2016-07-08T09:00:00Z,1467968400,2016,9,0,190.375,190.375,69.3186,-166.00079,1011.0,10.74,-999.0,yes,yes,no,300234063323700,BD2GI,AOML,UNKNOWN,North
2016-07-08T10:00:28Z,1467972029,2016,10,0,190.417,190.417,69.518,-165.627,1011.1,10.57,-999.0,yes,yes,no,300234063323700,BD2GI,AOML,UNKNOWN,North
2016-07-08T10:59:31Z,1467975571,2016,11,0,190.458,190.458,69.7218,-165.24159,1011.5,9.92,-999.0,yes,yes,no,300234063323700,BD2GI,AOML,UNKNOWN,North
2016-07-08T12:00:00Z,1467979200,2016,12,0,190.5,190.5,69.9258,-164.852,1011.2,8.9,-999.0,yes,yes,no,300234063323700,BD2GI,AOML,UNKNOWN,North
2016-07-08T13:00:28Z,1467982829,2016,13,0,190.542,190.542,70.1228,-164.47141,1010.9,8.25,-999.0,yes,yes,no,300234063323700,BD2GI,AOML,UNKNOWN,North
2016-07-08T13:59:31Z,1467986371,2016,14,0,190.583,190.583,70.3248,-164.07739,1010.5,7.66,-999.0,yes,yes,no,300234063323700,BD2GI,AOML,UNKNOWN,North
2016-07-08T15:00:00Z,1467990000,2016,15,0,190.625,190.625,70.4604,-163.7704,1010.4,6.78,-999.0,yes,yes,no,300234063323700,BD2GI,AOML,UNKNOWN,North
2016-07-08T16:00:28Z,1467993629,2016,16,0,190.667,190.667,70.5966,-163.5454,1010.3,6.91,-999.0,yes,yes,no,300234063323700,BD2GI,AOML,UNKNOWN,North
2016-07-08T16:59:31Z,1467997171,2016,17,0,190.708,190.708,70.7674,-163.24319,1010.3,7.22,-999.0,yes,yes,no,300234063323700,BD2GI,AOML,UNKNOWN,North
2016-07-08T18:00:00Z,1468000800,2016,18,0,190.75,190.75,70.9016,-162.881,1010.4,7.43,-999.0,yes,yes,no,300234063323700,BD2GI,AOML,UNKNOWN,North
2016-07-08T19:00:28Z,1468004429,2016,19,0,190.792,190.792,70.9652,-162.49741,1010.9,7.73,-999.0,yes,yes,no,300234063323700,BD2GI,AOML,UNKNOWN,North
2016-07-08T19:59:31Z,1468007971,2016,20,0,190.833,190.833,71.0654,-162.4798,1011.0,8.14,-999.0,yes,yes,no,300234063323700,BD2GI,AOML,UNKNOWN,North
2016-07-08T21:00:00Z,1468011600,2016,21,0,190.875,190.875,71.1226,-162.278,1011.3,8.83,-999.0,yes,yes,no,300234063323700,BD2GI,AOML,UNKNOWN,North
2016-07-08T22:00:28Z,1468015229,2016,22,0,190.917,190.917,71.2,-162.1266,1011.4,10.09,-999.0,yes,yes,no,300234063323700,BD2GI,AOML,UNKNOWN,North
2016-07-08T22:59:31Z,1468018771,2016,23,0,190.958,190.958,71.2514,-161.89079,1011.7,11.08,-999.0,yes,yes,no,300234063323700,BD2GI,AOML,UNKNOWN,North
2016-07-09T00:00:00Z,1468022400,2016,0,0,191.0,191.0,71.3338,-161.77901,1011.7,12.11,-999.0,yes,yes,no,300234063323700,BD2GI,AOML,UNKNOWN,North
2016-07-09T01:00:28Z,1468026029,2016,1,0,191.042,191.042,71.4034,-161.681,1011.6,12.73,-999.0,yes,yes,no,300234063323700,BD2GI,AOML,UNKNOWN,North
2016-07-09T01:59:31Z,1468029571,2016,2,0,191.083,191.083,71.4758,-161.6216,1011.4,13.0,-999.0,yes,yes,no,300234063323700,BD2GI,AOML,UNKNOWN,North
2016-07-09T03:00:00Z,1468033200,2016,3,0,191.125,191.125,71.5518,-161.556,1011.2,13.41,-999.0,yes,yes,no,300234063323700,BD2GI,AOML,UNKNOWN,North
2016-07-09T04:00:28Z,1468036829,2016,4,0,191.167,191.167,71.5996,-161.5016,1010.9,13.14,-999.0,yes,yes,no,300234063323700,BD2GI,AOML,UNKNOWN,North
2016-07-09T04:59:31Z,1468040371,2016,5,0,191.208,191.208,71.596,-161.5036,1010.7,12.83,-999.0,yes,yes,no,300234063323700,BD2GI,AOML,UNKNOWN,North
2016-07-09T06:00:00Z,1468044000,2016,6,0,191.25,191.25,71.5916,-161.5074,1010.6,13.27,-999.0,yes,yes,no,300234063323700,BD2GI,AOML,UNKNOWN,North
2016-07-09T07:00:28Z,1468047629,2016,7,0,191.292,191.292,71.6594,-161.4724,1010.3,14.5,-999.0,yes,yes,no,300234063323700,BD2GI,AOML,UNKNOWN,North
2016-07-09T07:59:31Z,1468051171,2016,8,0,191.333,191.333,71.7544,-161.411,1010.4,12.86,-999.0,yes,yes,no,300234063323700,BD2GI,AOML,UNKNOWN,North
2016-07-09T09:00:00Z,1468054800,2016,9,0,191.375,191.375,71.846,-161.34599,1010.2,11.15,-999.0,yes,yes,no,300234063323700,BD2GI,AOML,UNKNOWN,North
2016-07-09T10:00:28Z,1468058429,2016,10,0,191.417,191.417,71.934,-161.27139,1010.0,9.27,-999.0,yes,yes,no,300234063323700,BD2GI,AOML,UNKNOWN,North
2016-07-09T10:59:31Z,1468061971,2016,11,0,191.458,191.458,72.0142,-161.24499,1009.8,8.25,-999.0,yes,yes,no,300234063323700,BD2GI,AOML,UNKNOWN,North
2016-07-09T12:00:00Z,1468065600,2016,12,0,191.5,191.5,72.097,-161.17,1009.6,7.43,-999.0,yes,yes,no,300234063323700,BD2GI,AOML,UNKNOWN,North
2016-07-09T13:00:28Z,1468069229,2016,13,0,191.542,191.542,72.1916,-161.11079,1009.4,6.91,-999.0,yes,yes,no,300234063323700,BD2GI,AOML,UNKNOWN,North
2016-07-09T13:59:31Z,1468072771,2016,14,0,191.583,191.583,72.2526,-161.0298,1009.1,6.37,-999.0,yes,yes,no,300234063323700,BD2GI,AOML,UNKNOWN,North
2016-07-09T15:00:00Z,1468076400,2016,15,0,191.625,191.625,72.3502,-160.9484,1009.1,6.3,-999.0,yes,yes,no,300234063323700,BD2GI,AOML,UNKNOWN,North
2016-07-09T16:00:28Z,1468080029,2016,16,0,191.667,191.667,72.4512,-160.8896,1008.8,6.4,-999.0,yes,yes,no,300234063323700,BD2GI,AOML,UNKNOWN,North
2016-07-09T16:59:31Z,1468083571,2016,17,0,191.708,191.708,72.549,-160.8038,1008.5,6.47,-999.0,yes,yes,no,300234063323700,BD2GI,AOML,UNKNOWN,North
2016-07-09T18:00:00Z,1468087200,2016,18,0,191.75,191.75,72.6252,-160.7858,1008.4,7.15,-999.0,yes,yes,no,300234063323700,BD2GI,AOML,UNKNOWN,North
2016-07-09T19:00:28Z,1468090829,2016,19,0,191.792,191.792,72.705,-160.78819,1008.2,7.43,-999.0,yes,yes,no,300234063323700,BD2GI,AOML,UNKNOWN,North
2016-07-09T19:59:31Z,1468094371,2016,20,0,191.833,191.833,72.7294,-160.7708,1008.2,7.87,-999.0,yes,yes,no,300234063323700,BD2GI,AOML,UNKNOWN,North
2016-07-09T21:00:00Z,1468098000,2016,21,0,191.875,191.875,72.7818,-160.7572,1007.8,8.21,-999.0,yes,yes,no,300234063323700,BD2GI,AOML,UNKNOWN,North
2016-07-09T22:00:28Z,1468101629,2016,22,0,191.917,191.917,72.8546,-160.6442,1007.8,8.96,-999.0,yes,yes,no,300234063323700,BD2GI,AOML,UNKNOWN,North
2016-07-09T22:59:31Z,1468105171,2016,23,0,191.958,191.958,72.928,-160.6176,1007.6,10.57,-999.0,yes,yes,no,300234063323700,BD2GI,AOML,UNKNOWN,North
2016-07-10T00:00:00Z,1468108800,2016,0,0,192.0,192.0,73.0044,-160.54781,1007.6,11.8,-999.0,yes,yes,no,300234063323700,BD2GI,AOML,UNKNOWN,North
2016-07-10T01:00:28Z,1468112429,2016,1,0,192.042,192.042,73.092,-160.46381,1007.7,12.83,-999.0,yes,yes,no,300234063323700,BD2GI,AOML,UNKNOWN,North
2016-07-10T01:59:31Z,1468115971,2016,2,0,192.083,192.083,73.1876,-160.40981,1007.7,13.1,-999.0,yes,yes,no,300234063323700,BD2GI,AOML,UNKNOWN,North
2016-07-10T03:00:00Z,1468119600,2016,3,0,192.125,192.125,73.2826,-160.3016,1007.5,13.24,-999.0,yes,yes,no,300234063323700,BD2GI,AOML,UNKNOWN,North
2016-07-10T04:00:28Z,1468123229,2016,4,0,192.167,192.167,73.3794,-160.2448,1007.3,13.65,-999.0,yes,yes,no,300234063323700,BD2GI,AOML,UNKNOWN,North
2016-07-10T04:59:31Z,1468126771,2016,5,0,192.208,192.208,73.4736,-160.1386,1007.5,13.27,-999.0,yes,yes,no,300234063323700,BD2GI,AOML,UNKNOWN,North
2016-07-10T06:00:00Z,1468130400,2016,6,0,192.25,192.25,73.5828,-160.1058,1007.4,11.73,-999.0,yes,yes,no,300234063323700,BD2GI,AOML,UNKNOWN,North
2016-07-10T07:00:28Z,1468134029,2016,7,0,192.292,192.292,73.6198,-160.14439,1007.2,10.33,-999.0,yes,yes,no,300234063323700,BD2GI,AOML,UNKNOWN,North
2016-07-10T07:59:31Z,1468137571,2016,8,0,192.333,192.333,73.6238,-160.1644,1007.0,9.07,-999.0,yes,yes,no,300234063323700,BD2GI,AOML,UNKNOWN,North
2016-07-10T09:00:00Z,1468141200,2016,9,0,192.375,192.375,73.63,-160.1924,1006.8,8.38,-999.0,yes,yes,no,300234063323700,BD2GI,AOML,UNKNOWN,North
2016-07-10T10:00:28Z,1468144829,2016,10,0,192.417,192.417,73.6364,-160.2032,1006.9,7.73,-999.0,yes,yes,no,300234063323700,BD2GI,AOML,UNKNOWN,North
2016-07-10T10:59:31Z,1468148371,2016,11,0,192.458,192.458,73.6404,-160.2196,1006.7,7.08,-999.0,yes,yes,no,300234063323700,BD2GI,AOML,UNKNOWN,North
2016-07-10T12:00:00Z,1468152000,2016,12,0,192.5,192.5,73.6442,-160.23399,1006.7,6.54,-999.0,yes,yes,no,300234063323700,BD2GI,AOML,UNKNOWN,North
2016-07-10T13:00:28Z,1468155629,2016,13,0,192.542,192.542,73.6466,-160.2556,1006.9,6.16,-999.0,yes,yes,no,300234063323700,BD2GI,AOML,UNKNOWN,North
2016-07-10T13:59:31Z,1468159171,2016,14,0,192.583,192.583,73.6514,-160.272,1006.9,5.78,-999.0,yes,yes,no,300234063323700,BD2GI,AOML,UNKNOWN,North
2016-07-10T15:00:00Z,1468162800,2016,15,0,192.625,192.625,73.6544,-160.29221,1007.0,5.65,-999.0,yes,yes,no,300234063323700,BD2GI,AOML,UNKNOWN,North
2016-07-10T16:00:28Z,1468166429,2016,16,0,192.667,192.667,73.6626,-160.28799,1007.0,5.78,-999.0,yes,yes,no,300234063323700,BD2GI,AOML,UNKNOWN,North
2016-07-10T16:59:31Z,1468169971,2016,17,0,192.708,192.708,73.665,-160.301,1007.1,6.16,-999.0,yes,yes,no,300234063323700,BD2GI,AOML,UNKNOWN,North
2016-07-10T18:00:00Z,1468173600,2016,18,0,192.75,192.75,73.6688,-160.3172,1007.5,6.47,-999.0,yes,yes,no,300234063323700,BD2GI,AOML,UNKNOWN,North
2016-07-10T19:00:28Z,1468177229,2016,19,0,192.792,192.792,73.6756,-160.33121,1007.8,7.22,-999.0,yes,yes,no,300234063323700,BD2GI,AOML,UNKNOWN,North
2016-07-10T19:59:31Z,1468180771,2016,20,0,192.833,192.833,73.6838,-160.3398,1008.1,8.42,-999.0,yes,yes,no,300234063323700,BD2GI,AOML,UNKNOWN,North
2016-07-10T21:00:00Z,1468184400,2016,21,0,192.875,192.875,73.6972,-160.3262,1008.5,8.9,-999.0,yes,yes,no,300234063323700,BD2GI,AOML,UNKNOWN,North
2016-07-10T22:00:28Z,1468188029,2016,22,0,192.917,192.917,73.7032,-160.334,1009.0,9.07,-999.0,yes,yes,no,300234063323700,BD2GI,AOML,UNKNOWN,North
2016-07-10T22:59:31Z,1468191571,2016,23,0,192.958,192.958,73.7078,-160.34441,1009.2,9.14,-999.0,yes,yes,no,300234063323700,BD2GI,AOML,UNKNOWN,North
2016-07-11T00:00:00Z,1468195200,2016,0,0,193.0,193.0,73.7142,-160.35361,1009.8,8.86,-999.0,yes,yes,no,300234063323700,BD2GI,AOML,UNKNOWN,North
2016-07-11T01:00:28Z,1468198829,2016,1,0,193.042,193.042,73.7174,-160.3622,1010.0,8.72,-999.0,yes,yes,no,300234063323700,BD2GI,AOML,UNKNOWN,North
2016-07-11T01:59:31Z,1468202371,2016,2,0,193.083,193.083,73.7188,-160.375,1010.2,8.76,-999.0,yes,yes,no,300234063323700,BD2GI,AOML,UNKNOWN,North
2016-07-11T03:00:00Z,1468206000,2016,3,0,193.125,193.125,73.7214,-160.3828,1010.5,8.69,-999.0,yes,yes,no,300234063323700,BD2GI,AOML,UNKNOWN,North
2016-07-11T04:00:28Z,1468209629,2016,4,0,193.167,193.167,73.723,-160.396,1011.4,8.59,-999.0,yes,yes,no,300234063323700,BD2GI,AOML,UNKNOWN,North
2016-07-11T04:59:31Z,1468213171,2016,5,0,193.208,193.208,73.7256,-160.4102,1011.6,7.94,-999.0,yes,yes,no,300234063323700,BD2GI,AOML,UNKNOWN,North
2016-07-11T06:00:00Z,1468216800,2016,6,0,193.25,193.25,73.7302,-160.4218,1012.1,7.43,-999.0,yes,yes,no,300234063323700,BD2GI,AOML,UNKNOWN,North
2016-07-11T07:00:28Z,1468220429,2016,7,0,193.292,193.292,73.735,-160.4332,1012.6,6.78,-999.0,yes,yes,no,300234063323700,BD2GI,AOML,UNKNOWN,North
2016-07-11T07:59:31Z,1468223971,2016,8,0,193.333,193.333,73.7412,-160.4418,1012.9,5.92,-999.0,yes,yes,no,300234063323700,BD2GI,AOML,UNKNOWN,North
2016-07-11T09:00:00Z,1468227600,2016,9,0,193.375,193.375,73.748,-160.44501,1013.3,4.83,-999.0,yes,yes,no,300234063323700,BD2GI,AOML,UNKNOWN,North
2016-07-11T10:00:28Z,1468231229,2016,10,0,193.417,193.417,73.7554,-160.4408,1013.8,4.59,-999.0,yes,yes,no,300234063323700,BD2GI,AOML,UNKNOWN,North
2016-07-11T10:59:31Z,1468234771,2016,11,0,193.458,193.458,73.7596,-160.442,1014.2,4.04,-999.0,yes,yes,no,300234063323700,BD2GI,AOML,UNKNOWN,North
2016-07-11T12:00:00Z,1468238400,2016,12,0,193.5,193.5,73.7654,-160.43401,1014.2,3.73,-999.0,yes,yes,no,300234063323700,BD2GI,AOML,UNKNOWN,North
2016-07-11T13:00:28Z,1468242029,2016,13,0,193.542,193.542,73.7668,-160.43739,1014.3,3.66,-999.0,yes,yes,no,300234063323700,BD2GI,AOML,UNKNOWN,North
2016-07-11T13:59:31Z,1468245571,2016,14,0,193.583,193.583,73.769,-160.4368,1014.5,3.73,-999.0,yes,yes,no,300234063323700,BD2GI,AOML,UNKNOWN,North
2016-07-11T15:00:00Z,1468249200,2016,15,0,193.625,193.625,73.7712,-160.43761,1014.7,3.87,-999.0,yes,yes,no,300234063323700,BD2GI,AOML,UNKNOWN,North
2016-07-11T16:00:28Z,1468252829,2016,16,0,193.667,193.667,73.7734,-160.44141,1014.9,3.94,-999.0,yes,yes,no,300234063323700,BD2GI,AOML,UNKNOWN,North
2016-07-11T16:59:31Z,1468256371,2016,17,0,193.708,193.708,73.7758,-160.44679,1014.9,4.28,-999.0,yes,yes,no,300234063323700,BD2GI,AOML,UNKNOWN,North
2016-07-11T18:00:00Z,1468260000,2016,18,0,193.75,193.75,73.7808,-160.43761,1015.0,4.76,-999.0,yes,yes,no,300234063323700,BD2GI,AOML,UNKNOWN,North
2016-07-11T19:00:28Z,1468263629,2016,19,0,193.792,193.792,73.7854,-160.43581,1014.9,5.82,-999.0,yes,yes,no,300234063323700,BD2GI,AOML,UNKNOWN,North
2016-07-11T19:59:31Z,1468267171,2016,20,0,193.833,193.833,73.7906,-160.44099,1015.0,6.91,-999.0,yes,yes,no,300234063323700,BD2GI,AOML,UNKNOWN,North
2016-07-11T21:00:00Z,1468270800,2016,21,0,193.875,193.875,73.7968,-160.4436,1014.7,7.53,-999.0,yes,yes,no,300234063323700,BD2GI,AOML,UNKNOWN,North
2016-07-11T22:00:28Z,1468274429,2016,22,0,193.917,193.917,73.8042,-160.44279,1014.7,7.84,-999.0,yes,yes,no,300234063323700,BD2GI,AOML,UNKNOWN,North
2016-07-11T22:59:31Z,1468277971,2016,23,0,193.958,193.958,73.8124,-160.437,1014.5,7.77,-999.0,yes,yes,no,300234063323700,BD2GI,AOML,UNKNOWN,North
2016-07-12T00:00:00Z,1468281600,2016,0,0,194.0,194.0,73.8208,-160.4256,1014.0,8.14,-999.0,yes,yes,no,300234063323700,BD2GI,AOML,UNKNOWN,North
2016-07-12T01:00:28Z,1468285229,2016,1,0,194.042,194.042,73.8292,-160.412,1013.5,8.38,-999.0,yes,yes,no,300234063323700,BD2GI,AOML,UNKNOWN,North
2016-07-12T01:59:31Z,1468288771,2016,2,0,194.083,194.083,73.837,-160.39619,1013.3,8.49,-999.0,yes,yes,no,300234063323700,BD2GI,AOML,UNKNOWN,North
2016-07-12T03:00:00Z,1468292400,2016,3,0,194.125,194.125,73.837,-160.3614,1013.2,8.04,-999.0,yes,yes,no,300234063323700,BD2GI,AOML,UNKNOWN,North
2016-07-12T04:00:28Z,1468296029,2016,4,0,194.167,194.167,73.8428,-160.3446,1012.7,7.7,-999.0,yes,yes,no,300234063323700,BD2GI,AOML,UNKNOWN,North
2016-07-12T04:59:31Z,1468299571,2016,5,0,194.208,194.208,73.8466,-160.325,1012.2,6.84,-999.0,yes,yes,no,300234063323700,BD2GI,AOML,UNKNOWN,North
2016-07-12T06:00:00Z,1468303200,2016,6,0,194.25,194.25,73.8416,-160.291,1012.0,6.5,-999.0,yes,yes,no,300234063323700,BD2GI,AOML,UNKNOWN,North
2016-07-12T07:00:28Z,1468306829,2016,7,0,194.292,194.292,73.848,-160.28,1012.4,6.43,-999.0,yes,yes,no,300234063323700,BD2GI,AOML,UNKNOWN,North
2016-07-12T07:59:31Z,1468310371,2016,8,0,194.333,194.333,73.8512,-160.2626,1012.2,6.3,-999.0,yes,yes,no,300234063323700,BD2GI,AOML,UNKNOWN,North
2016-07-12T09:00:00Z,1468314000,2016,9,0,194.375,194.375,73.8532,-160.242,1012.5,6.06,-999.0,yes,yes,no,300234063323700,BD2GI,AOML,UNKNOWN,North
2016-07-12T10:00:28Z,1468317629,2016,10,0,194.417,194.417,73.8562,-160.2242,1012.2,5.85,-999.0,yes,yes,no,300234063323700,BD2GI,AOML,UNKNOWN,North
2016-07-12T10:59:31Z,1468321171,2016,11,0,194.458,194.458,73.8606,-160.2114,1013.5,5.44,-999.0,yes,yes,no,300234063323700,BD2GI,AOML,UNKNOWN,North
2016-07-12T12:00:00Z,1468324800,2016,12,0,194.5,194.5,73.8626,-160.1954,1013.8,5.13,-999.0,yes,yes,no,300234063323700,BD2GI,AOML,UNKNOWN,North
2016-07-12T13:00:28Z,1468328429,2016,13,0,194.542,194.542,73.8652,-160.1852,1014.6,4.83,-999.0,yes,yes,no,300234063323700,BD2GI,AOML,UNKNOWN,North
2016-07-12T13:59:31Z,1468331971,2016,14,0,194.583,194.583,73.8666,-160.1756,1015.5,4.59,-999.0,yes,yes,no,300234063323700,BD2GI,AOML,UNKNOWN,North
2016-07-12T15:00:00Z,1468335600,2016,15,0,194.625,194.625,73.8676,-160.1696,1016.0,4.42,-999.0,yes,yes,no,300234063323700,BD2GI,AOML,UNKNOWN,North
2016-07-12T16:00:28Z,1468339229,2016,16,0,194.667,194.667,73.8682,-160.1664,1016.7,4.45,-999.0,yes,yes,no,300234063323700,BD2GI,AOML,UNKNOWN,North
2016-07-12T16:59:31Z,1468342771,2016,17,0,194.708,194.708,73.868,-160.16319,1017.4,4.55,-999.0,yes,yes,no,300234063323700,BD2GI,AOML,UNKNOWN,North
2016-07-12T18:00:00Z,1468346400,2016,18,0,194.75,194.75,73.8722,-160.1638,1018.1,4.93,-999.0,yes,yes,no,300234063323700,BD2GI,AOML,UNKNOWN,North
2016-07-12T19:00:28Z,1468350029,2016,19,0,194.792,194.792,73.873,-160.1642,1018.3,6.5,-999.0,yes,yes,no,300234063323700,BD2GI,AOML,UNKNOWN,North
2016-07-12T19:59:31Z,1468353571,2016,20,0,194.833,194.833,73.8766,-160.16921,1018.8,8.62,-999.0,yes,yes,no,300234063323700,BD2GI,AOML,UNKNOWN,North
2016-07-12T21:00:00Z,1468357200,2016,21,0,194.875,194.875,73.881,-160.1758,1018.6,10.74,-999.0,yes,yes,no,300234063323700,BD2GI,AOML,UNKNOWN,North
2016-07-12T22:00:28Z,1468360829,2016,22,0,194.917,194.917,73.8874,-160.181,1019.0,10.4,-999.0,yes,yes,no,300234063323700,BD2GI,AOML,UNKNOWN,North
2016-07-12T22:59:31Z,1468364371,2016,23,0,194.958,194.958,73.8956,-160.1832,1019.0,11.46,-999.0,yes,yes,no,300234063323700,BD2GI,AOML,UNKNOWN,North
2016-07-13T00:00:00Z,1468368000,2016,0,0,195.0,195.0,73.9046,-160.17999,1018.8,11.29,-999.0,yes,yes,no,300234063323700,BD2GI,AOML,UNKNOWN,North
2016-07-13T01:00:28Z,1468371629,2016,1,0,195.042,195.042,73.9136,-160.1714,1018.4,9.99,-999.0,yes,yes,no,300234063323700,BD2GI,AOML,UNKNOWN,North
2016-07-13T01:59:31Z,1468375171,2016,2,0,195.083,195.083,73.923,-160.15739,1018.0,8.86,-999.0,yes,yes,no,300234063323700,BD2GI,AOML,UNKNOWN,North
2016-07-13T03:00:00Z,1468378800,2016,3,0,195.125,195.125,73.9318,-160.1394,1017.3,7.73,-999.0,yes,yes,no,300234063323700,BD2GI,AOML,UNKNOWN,North
2016-07-13T04:00:28Z,1468382429,2016,4,0,195.167,195.167,73.9398,-160.1244,1016.2,6.4,-999.0,yes,yes,no,300234063323700,BD2GI,AOML,UNKNOWN,North
2016-07-13T04:59:31Z,1468385971,2016,5,0,195.208,195.208,73.9482,-160.10921,1016.1,6.78,-999.0,yes,yes,no,300234063323700,BD2GI,AOML,UNKNOWN,North
2016-07-13T06:00:00Z,1468389600,2016,6,0,195.25,195.25,73.9568,-160.0912,1015.1,7.56,-999.0,yes,yes,no,300234063323700,BD2GI,AOML,UNKNOWN,North
2016-07-13T07:00:28Z,1468393229,2016,7,0,195.292,195.292,73.9668,-160.0766,1014.7,7.43,-999.0,yes,yes,no,300234063323700,BD2GI,AOML,UNKNOWN,North
2016-07-13T07:59:31Z,1468396771,2016,8,0,195.333,195.333,73.9768,-160.05679,1013.9,7.12,-999.0,yes,yes,no,300234063323700,BD2GI,AOML,UNKNOWN,North
2016-07-13T09:00:00Z,1468400400,2016,9,0,195.375,195.375,73.9884,-160.03819,1013.0,6.6,-999.0,yes,yes,no,300234063323700,BD2GI,AOML,UNKNOWN,North
2016-07-13T10:00:28Z,1468404029,2016,10,0,195.417,195.417,74.0002,-160.0112,1012.5,6.26,-999.0,yes,yes,no,300234063323700,BD2GI,AOML,UNKNOWN,North
2016-07-13T10:59:31Z,1468407571,2016,11,0,195.458,195.458,74.0112,-159.97839,1012.0,6.33,-999.0,yes,yes,no,300234063323700,BD2GI,AOML,UNKNOWN,North
2016-07-13T12:00:00Z,1468411200,2016,12,0,195.5,195.5,74.0204,-159.9386,1011.4,6.47,-999.0,yes,yes,no,300234063323700,BD2GI,AOML,UNKNOWN,North
2016-07-13T13:00:28Z,1468414829,2016,13,0,195.542,195.542,74.0286,-159.8956,1011.2,6.64,-999.0,yes,yes,no,300234063323700,BD2GI,AOML,UNKNOWN,North
2016-07-13T13:59:31Z,1468418371,2016,14,0,195.583,195.583,74.0308,-159.84399,1010.5,6.98,-999.0,yes,yes,no,300234063323700,BD2GI,AOML,UNKNOWN,North
2016-07-13T15:00:00Z,1468422000,2016,15,0,195.625,195.625,74.0302,-159.802,1010.4,8.18,-999.0,yes,yes,no,300234063323700,BD2GI,AOML,UNKNOWN,North
2016-07-13T16:00:28Z,1468425629,2016,16,0,195.667,195.667,74.0434,-159.4926,1010.2,8.79,-999.0,yes,yes,no,300234063323700,BD2GI,AOML,UNKNOWN,North
2016-07-13T16:59:31Z,1468429171,2016,17,0,195.708,195.708,74.1998,-159.25079,1010.0,7.7,-999.0,yes,yes,no,300234063323700,BD2GI,AOML,UNKNOWN,North
2016-07-13T18:00:00Z,1468432800,2016,18,0,195.75,195.75,74.3246,-159.5238,1009.5,5.75,-999.0,yes,yes,no,300234063323700,BD2GI,AOML,UNKNOWN,North
2016-07-13T19:00:28Z,1468436429,2016,19,0,195.792,195.792,74.3292,-159.52319,1009.4,6.4,-999.0,yes,yes,no,300234063323700,BD2GI,AOML,UNKNOWN,North
2016-07-13T19:59:31Z,1468439971,2016,20,0,195.833,195.833,74.3218,-159.49921,1009.4,8.86,-999.0,yes,yes,no,300234063323700,BD2GI,AOML,UNKNOWN,North
2016-07-13T21:00:00Z,1468443600,2016,21,0,195.875,195.875,74.3208,-159.4556,1009.6,10.3,-999.0,yes,yes,no,300234063323700,BD2GI,AOML,UNKNOWN,North
2016-07-13T22:00:28Z,1468447229,2016,22,0,195.917,195.917,74.326,-159.4016,1009.7,10.33,-999.0,yes,yes,no,300234063323700,BD2GI,AOML,UNKNOWN,North
2016-07-13T22:59:31Z,1468450771,2016,23,0,195.958,195.958,74.3258,-159.38541,1009.6,11.19,-999.0,yes,yes,no,300234063323700,BD2GI,AOML,UNKNOWN,North
2016-07-14T00:00:00Z,1468454400,2016,0,0,196.0,196.0,74.36,-159.5806,1009.6,9.89,-999.0,yes,yes,no,300234063323700,BD2GI,AOML,UNKNOWN,North
2016-07-14T01:00:28Z,1468458029,2016,1,0,196.042,196.042,74.3722,-159.58,1009.7,10.2,-999.0,yes,yes,no,300234063323700,BD2GI,AOML,UNKNOWN,North
2016-07-14T01:59:31Z,1468461571,2016,2,0,196.083,196.083,74.3774,-159.562,1009.7,9.61,-999.0,yes,yes,no,300234063323700,BD2GI,AOML,UNKNOWN,North
2016-07-14T03:00:00Z,1468465200,2016,3,0,196.125,196.125,74.3806,-159.56261,1009.2,8.62,-999.0,yes,yes,no,300234063323700,BD2GI,AOML,UNKNOWN,North
2016-07-14T04:00:28Z,1468468829,2016,4,0,196.167,196.167,74.3824,-159.5708,1009.4,6.88,-999.0,yes,yes,no,300234063323700,BD2GI,AOML,UNKNOWN,North
2016-07-14T04:59:31Z,1468472371,2016,5,0,196.208,196.208,74.3762,-159.5706,1009.4,6.71,-999.0,yes,yes,no,300234063323700,BD2GI,AOML,UNKNOWN,North
2016-07-14T06:00:00Z,1468476000,2016,6,0,196.25,196.25,74.3642,-159.60339,1009.5,4.69,-999.0,yes,yes,no,300234063323700,BD2GI,AOML,UNKNOWN,North
2016-07-14T07:00:28Z,1468479629,2016,7,0,196.292,196.292,74.37,-159.6232,1009.5,4.31,-999.0,yes,yes,no,300234063323700,BD2GI,AOML,UNKNOWN,North
2016-07-14T07:59:31Z,1468483171,2016,8,0,196.333,196.333,74.374,-159.6368,1009.6,3.97,-999.0,yes,yes,no,300234063323700,BD2GI,AOML,UNKNOWN,North
2016-07-14T09:00:00Z,1468486800,2016,9,0,196.375,196.375,74.3738,-159.6608,1009.9,3.83,-999.0,yes,yes,no,300234063323700,BD2GI,AOML,UNKNOWN,North
2016-07-14T10:00:28Z,1468490429,2016,10,0,196.417,196.417,74.3522,-159.709,1010.0,3.7,-999.0,yes,yes,no,300234063323700,BD2GI,AOML,UNKNOWN,North
2016-07-14T10:59:31Z,1468493971,2016,11,0,196.458,196.458,74.3578,-159.7052,1010.3,3.42,-999.0,yes,yes,no,300234063323700,BD2GI,AOML,UNKNOWN,North
2016-07-14T12:00:00Z,1468497600,2016,12,0,196.5,196.5,74.3592,-159.6976,1010.4,3.25,-999.0,yes,yes,no,300234063323700,BD2GI,AOML,UNKNOWN,North
2016-07-14T13:00:28Z,1468501229,2016,13,0,196.542,196.542,74.3678,-159.7032,1010.9,2.3,-999.0,yes,yes,no,300234063323700,BD2GI,AOML,UNKNOWN,North
2016-07-14T13:59:31Z,1468504771,2016,14,0,196.583,196.583,74.3682,-159.72,1011.1,2.64,-999.0,yes,yes,no,300234063323700,BD2GI,AOML,UNKNOWN,North
2016-07-14T15:00:00Z,1468508400,2016,15,0,196.625,196.625,74.374,-159.6944,1011.4,3.15,-999.0,yes,yes,no,300234063323700,BD2GI,AOML,UNKNOWN,North
2016-07-14T16:00:28Z,1468512029,2016,16,0,196.667,196.667,74.3666,-159.67219,1011.5,3.42,-999.0,yes,yes,no,300234063323700,BD2GI,AOML,UNKNOWN,North
2016-07-14T16:59:31Z,1468515571,2016,17,0,196.708,196.708,74.3688,-159.6766,1011.6,3.25,-999.0,yes,yes,no,300234063323700,BD2GI,AOML,UNKNOWN,North